RH
35 40 43 45 46 46 46 48 50 53 57 58 59 60 62 64 65 66 69 71 73 73 74 76 77 76 78 80 82 86 90 90 87 86 86 93 99 97 96 97 97 99 99 94 89 84 75 70 74 84 94 99 100 99 93 86 84 86 91 97 99 100 100
37 42 45 47 48 49 49 50 52 55 58 58 57 57 59 61 62 65 68 69 71 72 73 75 75 74 76 80 82 82 85 88 91 91 90 91 96 98 97 99 100 100 100 99 94 87 81 72 64 61 69 80 91 97 95 90 84 81 83 88 93 97 100
39 43 48 50 51 51 52 53 54 57 59 58 56 56 56 57 58 62 66 68 69 70 72 74 75 73 74 80 83 81 80 82 84 84 84 85 89 94 97 98 100 101 100 101 99 93 88 81 75 66 55 50 59 75 84 87 85 81 78 79 82 88 94
42 46 50 53 54 54 54 55 57 59 59 59 57 56 55 56 56 58 62 66 68 69 70 73 73 71 71 77 83 82 81 83 84 83 82 83 85 87 91 95 99 101 100 100 100 99 94 85 80 79 69 53 45 49 58 65 69 71 72 73 74 76 82
46 50 52 55 56 57 57 57 58 59 59 59 58 57 56 56 57 57 59 63 65 67 67 68 70 70 70 75 81 83 83 84 85 84 83 84 82 82 86 91 97 100 101 100 100 99 99 93 86 84 81 72 61 50 49 54 57 57 59 63 66 67 71
50 54 55 57 60 61 60 59 59 60 60 60 59 58 58 57 57 57 58 60 62 64 66 67 69 70 71 75 81 84 85 86 86 86 86 84 79 79 85 90 94 99 101 101 101 100 100 97 93 89 81 74 70 62 53 53 54 52 48 49 53 57 61
54 58 58 60 63 64 63 62 61 62 62 62 61 60 59 58 58 58 58 59 61 63 65 66 67 70 73 78 84 87 88 88 87 88 88 85 78 78 85 88 92 98 100 101 102 102 101 100 98 94 87 81 81 78 68 59 58 57 51 46 44 44 47
58 62 61 62 65 67 67 65 63 63 63 63 63 62 61 61 61 62 63 62 63 63 64 64 65 68 75 81 86 90 92 91 90 90 89 86 80 78 84 90 94 98 100 101 102 101 101 102 100 98 95 88 84 87 86 76 68 62 55 52 47 39 38
62 66 65 65 68 69 69 68 66 65 64 63 64 64 64 66 66 67 69 68 67 67 65 63 62 66 76 85 90 93 93 90 90 90 89 87 81 80 86 93 96 99 101 100 100 101 100 101 102 101 99 96 90 88 85 78 73 66 58 58 56 42 34
66 71 69 69 71 70 71 71 69 67 66 64 65 65 66 69 73 74 73 73 73 73 69 64 62 66 78 88 94 96 93 89 90 92 91 87 83 85 92 96 95 94 97 100 100 100 100 101 102 101 100 100 98 94 90 85 85 83 76 76 74 59 43
69 74 74 73 73 71 72 73 70 68 69 68 70 72 71 71 73 77 77 77 79 78 73 68 64 67 79 89 93 93 90 88 92 94 91 88 90 94 97 98 97 93 94 99 101 100 99 97 96 97 98 99 99 100 100 96 92 90 86 86 86 78 64
70 77 79 77 75 72 73 74 72 71 73 73 75 83 86 81 76 77 78 80 82 81 77 72 68 70 78 85 88 88 89 91 94 94 92 93 98 100 98 95 95 95 96 99 99 97 94 90 90 91 93 96 99 101 101 100 98 96 93 93 92 89 85
72 79 83 80 76 74 74 75 75 76 77 77 79 89 97 96 90 85 83 84 85 85 80 74 72 74 80 84 86 88 89 90 91 94 96 98 100 100 99 97 96 95 97 98 99 99 93 87 88 91 90 93 99 101 100 101 100 99 99 100 96 92 89
75 83 86 82 78 78 77 76 77 79 81 82 85 92 99 101 100 97 94 93 91 90 86 80 79 81 83 85 86 86 88 90 93 97 100 100 101 100 100 100 99 98 99 98 98 98 91 83 83 86 89 95 100 101 100 100 100 100 101 100 94 91 91
79 87 89 84 81 81 79 78 80 82 82 82 85 92 98 101 101 100 99 98 97 95 89 86 87 89 88 88 86 84 87 92 95 98 100 100 100 100 100 101 100 98 100 100 97 92 87 83 83 85 92 99 101 102 101 100 100 100 100 100 96 95 94
82 90 91 87 84 83 81 81 83 85 85 84 86 93 99 100 100 100 100 100 100 99 94 90 94 96 92 88 85 84 90 96 97 98 100 101 100 100 101 99 95 94 96 98 97 93 87 84 85 88 93 98 100 101 101 100 101 100 100 101 99 99 95
85 93 93 89 86 85 84 85 85 86 87 87 90 97 101 101 100 101 101 100 100 101 96 91 94 96 90 85 84 87 92 98 99 99 99 99 100 101 101 96 93 95 98 98 98 98 94 91 92 94 96 98 99 100 100 101 100 97 99 101 98 101 101
90 97 95 91 88 87 87 86 85 86 88 89 92 97 101 101 100 101 101 100 101 101 96 91 91 91 88 88 92 94 96 99 100 99 99 99 99 101 101 96 94 95 97 97 98 98 98 97 98 98 99 100 100 100 101 100 97 95 99 102 100 100 102
96 100 96 91 88 88 88 88 86 87 89 90 91 96 101 101 100 101 101 100 100 101 99 96 92 88 90 95 98 96 97 99 98 98 100 99 99 101 98 92 91 92 94 97 96 95 95 96 97 98 100 100 99 100 101 98 97 99 100 100 101 99 100
101 101 96 91 88 88 89 91 89 87 89 92 93 97 101 101 100 101 101 100 100 100 100 100 94 89 92 99 99 93 91 93 93 95 98 99 100 100 93 87 90 94 97 100 99 97 98 98 97 98 100 101 99 99 101 99 98 101 100 99 101 100 99
103 101 96 91 90 90 91 91 90 89 90 92 95 98 101 100 100 101 100 100 101 100 101 101 95 91 95 101 100 95 92 93 93 92 94 96 97 94 88 87 92 93 95 100 101 99 98 97 99 101 100 100 101 100 100 100 99 100 100 100 101 99 101
103 101 97 94 93 92 91 91 91 90 89 91 95 98 101 100 100 101 100 100 100 100 100 101 98 97 99 100 100 100 99 99 98 94 92 94 92 89 90 95 97 94 95 98 99 98 94 90 95 101 100 99 101 100 100 100 100 100 99 100 100 99 101
103 101 98 96 94 93 91 91 92 90 89 91 94 97 100 101 100 100 100 100 100 100 100 100 100 101 98 92 92 98 100 100 99 96 92 91 87 85 90 98 100 98 98 99 98 99 97 91 93 99 100 100 100 99 99 100 100 101 100 99 100 100 100
103 101 99 97 94 93 93 92 92 91 89 91 94 97 99 101 101 100 100 100 100 100 100 100 100 101 96 87 87 93 95 96 97 97 93 89 86 82 84 94 101 100 99 100 99 99 100 97 95 94 94 95 97 98 99 99 99 101 101 100 100 101 101
103 101 99 98 96 94 94 94 93 92 91 92 95 98 99 101 101 100 100 101 99 98 99 100 100 102 97 86 81 84 88 91 96 97 94 89 86 83 82 90 100 100 99 101 100 100 101 99 95 93 93 95 99 101 100 100 100 100 100 101 100 100 101
103 102 100 99 97 96 96 97 96 93 93 95 98 100 102 102 101 100 99 100 99 97 97 99 100 101 99 92 86 87 93 96 98 99 97 92 93 95 93 95 100 101 100 100 100 99 101 99 95 96 98 98 100 101 99 100 101 100 100 101 100 100 101
103 102 100 99 99 98 99 100 98 95 96 99 101 102 103 102 100 100 101 101 101 100 99 100 100 100 100 99 97 97 100 101 100 101 98 94 97 101 101 100 101 100 99 101 101 100 101 100 99 100 99 96 97 100 101 100 100 100 100 100 100 101 101
102 102 100 100 101 102 102 101 99 97 97 100 101 101 102 102 100 100 100 100 100 100 100 99 100 100 100 101 100 100 99 98 97 97 94 92 96 100 101 100 100 100 100 100 98 97 96 96 98 100 100 98 98 100 100 99 100 101 100 100 100 100 101
102 101 101 102 102 102 102 101 98 96 95 97 101 102 101 100 100 101 101 101 101 100 99 99 98 97 97 98 96 95 96 95 94 96 96 96 99 100 101 101 100 100 101 98 95 95 97 96 96 98 99 100 100 99 98 96 96 98 100 101 100 100 99
101 101 101 102 102 101 102 101 99 98 97 98 101 104 102 100 101 100 97 95 94 94 95 99 100 98 98 98 95 94 97 97 98 100 100 99 99 98 98 99 99 100 100 98 96 98 99 99 98 96 97 99 99 99 100 96 90 92 99 101 100 99 98
100 101 102 102 102 101 101 102 101 100 100 101 101 102 101 101 101 99 94 93 94 94 96 99 101 100 100 101 99 98 99 98 99 101 99 97 98 98 96 97 99 100 100 99 99 100 99 99 99 97 97 100 100 99 101 99 91 92 99 101 99 100 100
100 101 101 101 103 103 102 103 101 98 97 100 101 101 101 100 100 99 98 98 100 100 99 100 101 100 100 101 101 101 100 99 100 101 99 98 100 100 98 98 101 101 100 100 101 101 100 100 100 100 100 100 100 99 100 100 98 97 100 101 100 100 100
101 102 101 100 101 103 101 98 97 96 97 99 100 100 99 100 101 101 101 101 101 100 101 101 99 98 99 100 101 100 100 100 101 101 100 100 99 97 96 99 101 100 100 101 100 100 101 101 100 100 100 100 100 100 100 100 100 100 101 100 100 101 100
100 101 101 100 101 102 99 95 94 97 99 100 100 100 101 99 98 97 95 95 95 96 99 100 99 98 98 100 101 100 100 101 100 98 98 98 97 96 97 99 101 100 100 100 100 100 102 102 101 100 100 100 100 100 100 100 100 100 100 100 99 100 101
100 100 100 100 100 100 99 98 97 98 100 101 100 100 97 92 89 89 89 90 92 96 99 100 100 100 100 100 100 100 100 98 95 94 95 96 96 98 99 98 99 100 100 101 101 100 99 98 99 100 101 100 100 100 100 100 100 100 100 99 98 99 101
100 100 100 101 100 99 99 100 101 100 101 100 95 91 91 92 93 94 94 94 96 99 101 101 100 100 100 100 100 100 99 98 97 97 98 98 98 100 100 98 99 100 101 101 100 96 93 91 91 93 96 98 100 101 100 100 100 100 100 100 99 98 99
Wind_Speed
33 32 33 34 36 36 36 36 35 34 33 33 32 32 31 31 29 28 28 26 25 25 24 23 23 23 21 21 21 18 16 15 16 17 16 13 12 12 12 12 14 16 16 15 14 17 20 23 25 26 24 22 22 23 23 23 23 22 21 21 22 23 23
34 33 32 34 36 36 36 36 35 34 34 34 34 33 33 32 31 29 29 28 27 26 26 25 25 23 22 22 23 22 19 18 16 15 15 14 14 13 13 12 13 14 15 14 13 15 18 20 24 27 28 27 27 26 24 24 24 25 24 22 22 23 24
34 33 33 34 35 36 37 36 35 35 35 35 35 34 34 33 32 31 30 29 29 27 26 26 26 24 22 23 23 23 22 22 21 20 19 19 18 18 17 15 14 14 14 14 13 13 14 16 19 22 27 31 32 31 29 28 27 27 26 25 23 24 24
34 34 33 34 35 36 37 37 36 36 36 36 36 35 35 34 34 32 30 29 29 28 26 26 27 25 24 24 24 23 22 23 23 22 21 21 20 20 21 19 16 15 14 14 14 12 12 14 16 18 21 25 30 33 34 33 32 30 29 29 27 26 25
34 34 34 34 35 36 37 37 37 36 36 36 36 36 35 35 34 33 31 30 30 30 28 28 28 27 25 25 24 23 24 24 23 22 21 21 20 19 20 20 18 16 14 14 15 13 12 13 14 17 18 20 23 27 30 31 32 33 33 33 31 30 28
35 35 35 35 35 36 37 37 37 37 36 36 36 36 35 35 35 33 32 31 30 30 30 29 29 27 26 26 25 24 24 24 23 22 21 20 19 17 17 18 18 17 16 16 16 14 13 13 14 16 19 20 21 23 26 28 29 31 34 36 35 33 32
35 35 35 35 35 36 36 37 37 37 37 36 36 36 36 35 34 33 31 30 30 30 30 29 29 27 26 26 26 25 25 24 23 22 21 20 18 16 15 15 16 17 18 19 18 16 15 14 13 14 17 19 18 19 23 25 27 29 31 33 35 36 35
36 35 35 35 35 36 36 36 37 37 37 36 36 35 35 34 33 32 30 30 30 30 29 29 29 27 26 26 27 25 24 24 23 22 21 20 19 17 15 14 15 17 20 20 21 20 18 15 13 13 14 15 16 18 19 20 22 26 27 28 32 35 36
36 35 35 36 35 36 36 36 37 37 37 36 35 34 34 33 31 29 29 29 30 30 30 29 29 27 26 26 26 24 22 23 23 23 22 22 21 18 16 15 16 18 20 22 22 22 19 18 17 15 13 13 15 17 18 17 18 22 24 24 27 32 34
37 36 36 36 35 36 36 36 36 36 35 34 33 33 32 30 28 27 28 29 29 30 30 29 29 27 26 26 25 23 22 22 22 22 22 23 23 20 18 18 17 18 20 21 23 23 22 21 22 20 17 15 14 14 14 14 15 18 18 18 21 26 29
37 37 36 36 35 35 36 35 35 34 33 32 31 30 30 29 27 26 27 28 29 30 29 29 28 28 27 26 26 24 22 22 22 21 22 24 24 22 20 20 20 20 20 21 22 23 23 24 24 21 19 18 15 12 11 12 13 14 15 15 17 19 20
38 37 36 35 34 34 34 35 34 32 31 30 29 27 27 28 27 26 27 28 28 29 29 28 28 28 28 26 25 23 22 21 21 21 22 24 23 21 20 21 21 21 21 22 23 24 24 24 23 21 19 18 15 11 10 10 10 12 12 13 14 15 14
37 37 36 34 34 33 33 33 32 30 29 28 27 25 24 26 28 28 27 27 27 27 28 28 28 28 27 25 23 22 22 21 20 20 21 21 21 21 22 24 25 24 22 21 22 25 26 24 22 20 17 12 11 11 10 10 9 9 10 12 13 13 13
37 37 35 34 33 31 31 31 29 27 27 26 26 25 24 25 28 30 30 29 27 26 26 27 28 27 26 23 22 22 22 20 19 19 20 20 20 22 23 25 28 29 29 27 25 26 27 24 21 19 16 13 12 12 12 11 11 9 9 11 11 10 11
37 37 35 32 31 30 29 29 27 25 25 25 25 25 24 25 27 29 30 29 28 26 25 25 26 26 24 23 22 22 20 19 19 20 20 21 22 23 24 26 27 29 31 32 30 27 25 23 21 19 17 16 15 13 11 11 11 11 11 12 11 12 14
37 37 34 31 30 29 28 27 25 24 24 24 24 23 24 26 28 29 29 28 26 25 25 24 23 24 24 23 22 21 19 18 18 20 21 22 23 25 26 28 26 23 24 27 27 25 23 21 19 19 19 17 15 12 12 12 14 14 15 15 13 13 14
36 35 32 30 29 28 27 27 25 23 23 23 23 23 24 26 28 29 30 29 27 27 27 25 23 23 23 22 21 21 19 17 18 19 20 19 20 22 24 25 24 21 21 22 23 24 24 21 19 17 16 15 14 13 12 13 16 17 16 16 14 12 12
35 34 31 29 29 27 27 27 25 22 22 23 24 24 26 27 28 29 29 28 27 27 27 25 23 23 22 21 22 20 19 17 17 20 20 18 17 19 21 21 22 22 23 24 23 23 24 24 23 22 19 16 14 13 13 15 15 14 14 16 15 14 12
34 32 29 29 29 27 26 26 24 21 21 23 24 24 26 27 27 27 27 24 23 23 25 25 24 22 21 21 21 18 17 16 16 17 18 17 16 18 19 19 19 19 20 22 23 22 22 22 22 23 24 22 19 17 18 19 17 15 16 17 16 14 11
33 31 29 29 28 26 24 25 23 20 21 23 24 25 26 26 27 27 25 23 21 21 23 26 25 23 23 22 19 16 16 17 17 16 15 15 15 17 18 17 16 15 15 17 18 18 19 20 20 21 23 24 22 22 23 25 24 21 21 21 20 17 13
32 31 29 29 27 25 23 23 22 20 21 23 25 26 26 27 28 27 24 21 21 21 22 24 23 23 24 23 19 17 18 20 19 18 16 15 16 16 17 17 17 17 16 16 15 14 15 17 19 20 22 23 24 25 27 28 29 28 26 25 25 23 19
32 30 28 27 26 25 23 22 21 21 21 24 25 27 28 28 27 25 22 20 20 21 21 21 20 20 23 24 21 20 20 19 19 19 18 18 16 14 15 17 19 19 20 19 18 17 17 17 18 19 20 22 24 25 26 28 29 31 30 28 27 26 24
31 29 28 27 26 24 22 21 20 20 22 24 25 27 30 30 27 24 22 21 21 20 20 20 19 19 22 24 23 22 21 19 20 21 20 19 17 16 16 17 17 18 20 19 17 16 17 18 18 19 19 21 23 25 26 26 27 28 29 29 26 25 24
30 28 27 27 25 23 21 20 19 20 22 24 25 26 30 31 28 24 23 23 21 20 20 19 18 18 21 23 23 23 22 21 21 21 21 20 19 19 18 17 17 16 16 15 14 14 16 18 18 18 18 18 20 22 24 24 22 21 23 25 25 24 23
30 28 27 26 24 21 19 19 19 20 22 23 24 25 27 29 27 24 24 24 23 21 21 19 17 17 20 23 24 24 24 24 23 23 22 22 21 21 21 20 18 17 16 16 14 14 16 19 20 19 17 16 17 18 18 17 17 18 19 22 24 25 26
28 27 27 25 22 19 18 18 19 20 21 22 22 23 26 27 24 22 23 25 24 23 22 20 17 16 18 20 21 21 21 22 22 23 23 22 21 21 23 23 22 21 22 21 18 15 16 20 22 21 19 17 16 17 17 16 15 17 19 20 22 25 27
27 26 25 22 20 18 17 17 19 20 21 21 21 22 24 25 22 21 23 23 21 20 19 18 16 16 17 18 19 19 19 19 20 21 23 23 23 23 24 24 25 25 26 24 21 18 18 19 18 18 19 20 18 16 17 18 18 18 18 19 21 23 25
25 24 22 20 18 16 16 18 20 20 20 20 20 21 24 24 22 22 23 23 21 20 19 18 17 18 18 19 21 22 22 22 22 23 23 23 22 23 24 25 26 27 28 29 27 25 22 20 18 16 17 20 20 19 18 19 18 18 19 18 20 22 24
21 20 19 17 16 16 17 18 19 18 18 18 18 21 24 25 24 23 23 23 22 22 21 20 20 20 20 22 24 25 25 24 23 21 20 20 20 22 24 26 27 27 27 28 28 26 23 21 20 18 16 16 19 21 22 21 20 18 17 18 19 21 22
19 18 16 15 16 16 17 16 15 14 14 15 16 18 20 21 21 21 21 20 20 19 19 19 19 18 19 21 23 24 23 22 20 20 20 19 20 22 22 23 24 24 23 23 23 22 22 21 21 20 19 18 18 18 19 22 24 20 17 17 19 20 21
16 15 13 13 14 15 15 15 16 15 13 12 13 15 15 14 14 14 15 15 15 15 17 16 14 14 16 19 20 21 21 21 21 21 21 19 19 19 19 18 19 19 19 19 19 19 20 21 21 20 20 21 21 20 17 19 22 21 18 17 19 20 21
13 13 11 10 12 15 15 15 16 17 14 11 12 12 12 12 13 13 15 16 16 16 18 19 17 16 18 19 19 20 21 20 21 21 21 19 19 19 19 18 17 17 16 16 16 16 16 16 17 17 17 18 21 22 21 19 19 20 19 18 18 20 20
9 10 12 12 13 15 13 12 14 16 14 11 11 12 12 14 15 17 18 19 18 18 20 21 20 18 18 18 17 18 19 19 20 20 20 19 20 21 20 18 17 16 15 14 14 14 14 14 15 16 16 16 17 20 23 22 21 19 18 18 18 19 19
9 9 11 13 15 14 11 9 10 12 11 10 10 12 15 17 19 20 21 21 21 21 21 21 20 19 18 19 19 19 19 20 21 21 21 22 22 22 20 18 16 15 15 14 13 13 14 15 15 16 17 17 17 18 21 24 24 23 21 20 19 19 18
14 12 12 13 16 17 17 13 10 9 10 10 12 16 17 17 18 19 20 21 21 22 22 22 21 20 21 21 21 22 22 23 23 23 22 22 21 19 18 17 16 15 14 13 13 13 14 15 15 16 17 17 17 17 18 21 24 25 25 24 22 20 18
16 15 15 15 14 15 17 18 15 11 11 13 17 18 16 15 16 17 18 17 18 19 22 23 23 23 24 24 25 25 25 24 22 20 19 18 17 17 16 16 15 15 14 13 13 13 13 13 14 15 16 17 17 17 18 19 20 23 24 25 25 24 23
Wind_Direction
270 269 266 261 258 256 254 252 250 249 248 247 247 248 249 249 250 250 251 252 253 255 257 258 258 259 260 259 255 250 247 247 248 251 252 244 238 242 241 242 246 253 264 262 254 260 256 247 242 237 234 236 236 231 228 225 222 220 215 215 217 216 214
270 269 267 263 259 256 255 253 251 250 248 248 248 249 249 250 250 250 251 252 253 255 257 258 258 258 258 257 256 254 251 250 249 248 250 249 246 247 244 242 246 251 261 266 260 260 262 263 259 249 241 241 242 238 233 232 230 226 221 218 220 220 217
270 270 267 264 260 256 255 252 251 249 249 249 250 251 251 252 252 251 250 251 253 254 254 255 256 257 257 255 254 254 252 252 253 253 255 258 255 254 252 247 247 251 257 264 266 263 262 265 269 263 254 249 247 244 240 238 236 233 228 226 225 224 221
271 270 268 265 261 257 254 252 251 250 250 250 251 252 253 253 253 253 252 252 252 253 252 252 255 256 256 254 253 252 250 249 251 252 256 261 261 259 258 255 251 250 254 261 264 264 263 263 266 270 268 261 255 251 247 244 243 240 236 233 231 230 227
270 269 268 267 263 258 255 253 252 251 251 252 253 253 254 254 254 253 252 251 251 252 252 253 255 255 254 253 251 249 247 246 248 250 253 258 261 260 261 260 257 254 252 256 261 263 263 263 263 265 268 266 261 257 253 249 247 245 241 238 236 235 232
268 268 267 267 264 260 256 254 253 253 253 253 253 254 254 254 254 254 252 251 251 251 252 252 254 254 252 252 252 248 244 244 246 247 249 253 254 255 257 260 261 259 255 254 257 261 262 262 261 261 264 265 263 260 257 253 250 248 245 242 240 238 236
267 268 267 267 265 262 258 255 253 253 253 252 252 253 253 254 254 255 254 253 252 251 250 250 251 251 248 248 249 247 243 243 243 244 246 246 244 243 245 253 260 263 263 262 260 260 261 261 260 259 261 264 263 259 256 254 253 252 250 247 244 240 239
267 268 267 267 265 263 259 255 253 252 252 252 251 252 253 253 254 255 256 255 253 252 250 249 249 247 244 243 245 245 242 240 240 241 241 237 233 232 236 248 259 264 267 267 266 265 263 262 260 258 257 258 257 254 251 250 251 253 253 253 250 245 240
267 267 267 267 265 263 260 256 253 252 251 251 251 251 252 254 254 254 254 253 253 252 250 248 247 244 239 239 242 242 239 237 238 239 236 230 226 226 231 241 252 259 264 267 267 267 265 261 260 259 256 252 248 249 252 250 248 251 253 254 255 252 245
266 267 267 266 265 262 259 256 253 251 251 252 252 253 253 253 253 253 251 250 250 250 249 247 245 241 236 234 237 240 237 233 235 237 231 225 224 226 229 237 244 251 259 262 264 267 267 265 264 264 262 261 254 250 255 252 243 244 248 249 252 254 251
265 267 267 266 265 262 259 257 254 253 253 253 253 255 256 254 251 249 248 249 248 248 248 246 243 239 234 231 233 237 234 231 234 236 228 222 225 229 233 236 240 245 254 259 261 264 266 266 267 267 267 270 270 260 252 250 244 242 242 241 244 249 251
264 267 268 266 264 261 259 258 256 255 254 252 251 252 255 257 255 250 246 246 247 247 245 243 240 237 234 231 232 234 231 230 234 232 225 222 227 235 240 243 243 243 247 254 260 264 265 265 266 269 269 271 275 271 258 252 247 244 243 242 243 244 243
264 266 267 265 263 261 259 258 257 255 253 251 250 248 246 250 256 256 252 249 246 245 243 241 238 236 234 230 228 227 226 227 227 223 222 226 232 238 243 247 250 252 252 253 257 261 263 262 263 265 269 272 276 274 267 260 255 251 246 243 243 244 242
263 266 266 265 263 261 259 258 256 254 251 249 248 246 241 242 248 254 257 256 252 247 242 238 237 236 232 227 223 221 221 222 221 221 225 230 233 236 238 239 242 250 257 260 259 257 257 260 261 262 267 270 270 268 265 265 271 271 259 253 255 259 254
263 266 266 264 263 261 258 257 255 253 251 248 245 243 241 239 241 246 251 255 255 252 244 237 234 232 228 223 219 217 218 220 222 226 230 232 233 235 237 237 236 237 245 254 260 261 260 259 259 263 268 270 270 267 261 263 271 272 270 271 273 273 266
262 265 265 263 261 259 258 258 256 252 250 247 244 241 239 238 238 239 241 244 246 247 245 239 232 228 224 219 215 213 215 221 226 228 229 230 233 235 236 239 240 235 236 246 258 267 270 268 264 263 266 270 268 259 252 258 266 264 263 265 265 265 265
262 264 264 262 260 259 259 259 256 252 248 244 241 239 237 236 236 236 237 237 236 238 242 239 231 226 223 215 208 209 212 219 228 234 234 233 236 236 235 236 236 235 237 244 253 263 269 274 276 272 268 267 261 253 253 259 262 260 255 252 252 256 261
262 264 262 261 259 258 258 259 257 252 247 242 236 232 231 233 234 235 236 236 236 237 239 237 231 226 222 210 202 204 208 211 222 234 239 241 240 237 236 238 237 235 236 239 243 250 253 258 266 270 271 269 261 258 264 263 259 258 251 245 246 251 259
261 261 259 258 257 256 257 259 258 252 244 240 233 227 227 229 231 233 233 232 233 234 236 236 232 225 217 207 200 200 205 209 217 227 234 237 239 238 238 243 246 244 244 243 243 246 247 247 250 253 257 261 260 259 262 263 262 262 257 252 252 250 250
258 257 256 257 257 257 257 258 260 254 244 238 230 222 222 225 226 228 228 226 226 227 231 235 232 223 213 208 205 206 210 215 221 226 230 233 238 242 242 246 252 255 258 259 257 255 254 252 249 245 244 248 251 251 254 259 263 264 260 257 257 251 241
255 255 255 257 258 258 258 258 259 255 243 236 229 220 217 222 225 225 224 223 225 226 229 233 230 222 215 213 213 214 215 220 224 226 233 239 243 247 249 251 255 254 252 258 262 261 258 256 254 251 246 244 245 245 246 249 254 259 260 258 256 253 247
254 254 255 257 257 258 259 260 259 253 241 233 227 218 213 217 224 224 220 221 223 223 227 229 226 221 219 218 216 214 215 223 230 233 240 244 245 253 256 254 256 256 254 257 260 260 261 260 256 253 250 246 243 242 242 243 244 250 254 256 257 256 252
252 254 255 255 256 258 260 262 258 250 239 230 224 218 213 213 219 222 218 218 222 223 224 223 219 219 222 223 224 224 225 230 236 240 245 246 247 256 260 257 256 254 250 251 251 249 253 258 258 256 252 247 241 239 240 241 241 244 248 252 256 257 255
251 253 254 254 256 258 262 262 255 244 236 228 223 219 214 211 215 220 219 219 223 223 223 223 222 224 226 227 228 231 233 235 239 243 246 248 253 260 260 255 252 243 232 232 238 243 250 257 258 257 253 249 244 241 241 242 242 241 244 249 254 256 256
250 252 253 253 256 260 262 261 251 239 232 226 221 218 213 210 212 219 221 221 222 222 223 224 222 222 227 230 232 233 236 240 243 246 250 254 258 261 257 250 244 238 234 236 242 249 255 257 258 260 260 258 254 250 248 248 244 238 236 240 245 249 252
251 253 253 253 257 262 261 254 243 234 229 224 218 214 210 206 208 215 219 221 223 224 224 222 216 217 227 233 234 235 237 241 245 249 253 253 252 251 251 248 243 244 247 249 249 250 254 256 257 260 263 264 261 255 247 241 238 235 234 234 236 239 243
251 252 253 255 259 262 256 245 235 229 225 219 212 207 202 199 202 210 211 210 211 210 209 208 208 213 220 223 225 227 230 235 241 245 249 249 245 243 246 247 245 246 249 250 251 254 255 254 253 254 256 257 255 248 240 235 231 231 236 240 240 240 242
253 253 255 258 262 259 246 234 227 223 219 212 204 200 197 195 198 204 202 198 197 198 200 207 215 220 223 224 226 230 233 236 241 244 248 249 245 240 242 244 245 247 249 251 254 255 253 249 244 243 249 251 248 242 239 238 233 230 234 241 242 241 244
255 255 257 258 255 243 232 226 222 216 211 205 198 196 197 198 202 207 208 209 213 218 223 231 237 237 236 234 235 236 237 239 241 243 243 242 240 241 243 246 249 251 252 253 253 253 251 247 243 241 241 244 246 245 242 241 238 231 231 238 240 240 246
251 252 254 250 240 231 222 214 206 200 201 201 198 198 202 206 209 215 220 222 226 230 235 238 238 235 233 234 235 234 231 230 230 232 233 237 242 246 249 252 254 252 249 248 248 247 246 244 242 242 238 233 237 243 245 245 243 234 227 236 241 240 247
246 246 249 243 228 214 201 190 185 183 186 196 202 202 204 210 215 220 223 222 221 226 227 223 219 219 222 224 224 223 222 223 224 227 233 240 246 249 253 258 260 254 248 248 248 247 247 245 242 243 241 234 231 233 237 245 246 237 230 236 240 241 247
239 233 233 228 204 185 177 179 181 175 172 186 203 204 205 214 219 221 221 217 214 215 215 212 214 222 225 222 220 220 222 224 224 226 232 238 244 250 256 260 259 255 251 250 248 246 248 247 243 241 242 239 235 232 232 239 243 239 235 236 239 242 245
233 220 210 202 186 169 164 177 183 175 171 183 199 204 210 215 214 214 215 212 208 210 215 219 226 233 229 222 220 220 219 220 223 226 231 237 243 252 258 257 253 249 247 246 245 244 245 245 243 242 244 245 242 237 233 233 234 235 237 239 240 241 239
211 218 210 203 201 193 180 173 179 183 186 192 199 205 211 214 215 218 222 221 221 224 228 232 236 236 229 222 222 222 223 226 231 234 238 242 247 251 252 248 243 241 241 242 243 244 243 244 243 243 244 246 245 241 236 231 227 227 230 234 236 235 233
200 214 214 208 215 221 216 206 198 194 192 196 203 206 210 218 226 232 234 234 232 231 231 231 231 228 225 223 225 229 234 239 243 244 243 243 242 241 238 235 233 233 236 239 239 240 241 242 243 243 243 242 241 239 236 232 226 223 224 226 230 233 232
199 202 200 196 205 217 213 203 194 185 185 201 212 216 222 234 241 243 243 240 233 228 226 226 227 228 230 231 233 237 241 243 243 239 234 230 228 226 226 226 226 228 230 232 234 236 238 240 242 243 242 240 238 237 235 233 229 225 222 221 225 230 233